Date String (YYYY-MM-DD hh:mm:ss) UTC,Instrument flags,Ambient pressure (hPa),Sample flow (lpm),Bypass flow (lpm),Sample temperature (°C),Ambient temperature (°C),ASC tube jacket temperature (°C),LED temperature (°C),Box temperature (°C),Sample RH (%),Span deviation,Mass concentration (μg/m³),Mass concentration (μg/m³),Mass concentration (μg/m³)
DateTimeUTC,F1_M11,P_M11,Q1_M11,Q2_M11,T1_M11,T2_M11,T3_M11,T4_M11,T5_M11,U1_M11,ZSPAN_M11,X2_M11,X0_M11,X1_M11
2023-05-04 22:00:00,,0823.2,5.01,0.00,30.5,29.3,00.0,38.8,32.0,14.9,0000.0,0003.91,0009.24,0002.50
2023-05-04 22:01:00,,0823.3,5.00,0.00,30.5,29.3,00.0,38.8,32.0,14.9,0000.0,0003.94,0008.83,0002.50
2023-05-04 22:02:00,,0823.2,4.99,0.00,30.5,29.3,00.0,38.8,32.0,15.1,0000.0,0003.98,0008.95,0002.49
2023-05-04 22:03:00,,0823.1,5.00,0.00,30.5,29.3,00.0,38.8,32.1,15.3,0000.0,0003.98,0008.98,0002.50
2023-05-04 22:04:00,,0823.1,5.00,0.00,30.5,29.3,00.0,38.8,32.1,15.1,0000.0,0003.93,0009.62,0002.46
2023-05-04 22:05:00,,0823.1,5.00,0.00,30.5,29.3,00.0,38.8,32.1,14.8,0000.0,0003.93,0009.82,0002.42
2023-05-04 22:06:00,,0823.1,5.02,0.00,30.5,29.3,00.0,38.8,32.1,14.7,0000.0,0003.91,0009.61,0002.42
2023-05-04 22:07:00,,0823.1,5.00,0.00,30.5,29.3,00.0,38.9,32.0,14.9,0000.0,0003.89,0009.47,0002.43
2023-05-04 22:08:00,,0823.2,4.99,0.00,30.6,29.3,00.0,38.9,32.0,14.6,0000.0,0003.93,0009.62,0002.43
2023-05-04 22:09:00,,0823.2,4.99,0.00,30.6,29.3,00.0,38.9,32.1,14.6,0000.0,0003.89,0009.57,0002.44
2023-05-04 22:10:00,,0823.1,5.02,0.00,30.6,29.3,00.0,38.9,32.1,14.6,0000.0,0003.89,0009.62,0002.43
2023-05-04 22:11:00,,0823.0,4.99,0.00,30.6,29.3,00.0,38.9,32.1,14.5,0000.0,0003.89,0009.65,0002.43
2023-05-04 22:12:00,,0823.0,4.99,0.00,30.6,29.4,00.0,38.9,32.2,14.6,0000.0,0003.83,0009.95,0002.42
2023-05-04 22:13:00,,0823.0,4.99,0.00,30.6,29.4,00.0,38.9,32.2,14.5,0000.0,0003.77,0010.21,0002.42
2023-05-04 22:14:00,,0823.1,5.02,0.00,30.6,29.4,00.0,38.9,32.2,14.6,0000.0,0003.77,0010.32,0002.41
2023-05-04 22:15:00,,0823.0,5.00,0.00,30.7,29.4,00.0,39.0,32.2,14.9,0000.0,0003.75,0009.68,0002.41
2023-05-04 22:16:00,,0823.0,4.99,0.00,30.7,29.4,00.0,39.0,32.2,14.8,0000.0,0003.79,0009.43,0002.44
2023-05-04 22:17:00,,0823.0,5.00,0.00,30.7,29.4,00.0,39.0,32.2,14.6,0000.0,0003.82,0009.75,0002.45
2023-05-04 22:18:00,,0823.0,5.00,0.00,30.7,29.4,00.0,39.0,32.2,14.5,0000.0,0003.85,0010.31,0002.47
2023-05-04 22:19:00,,0823.0,5.01,0.00,30.7,29.4,00.0,39.0,32.2,14.5,0000.0,0003.81,0010.23,0002.47
2023-05-04 22:20:00,,0823.1,5.01,0.00,30.7,29.4,00.0,39.0,32.3,14.2,0000.0,0003.79,0010.13,0002.47
2023-05-04 22:21:00,,0823.2,5.01,0.00,30.7,29.3,00.0,39.0,32.3,14.2,0000.0,0003.78,0010.04,0002.49
2023-05-04 22:22:00,,0823.1,5.00,0.00,30.7,29.3,00.0,39.0,32.2,14.1,0000.0,0003.83,0010.15,0002.52
2023-05-04 22:23:00,,0823.1,4.99,0.00,30.7,29.3,00.0,39.0,32.2,13.9,0000.0,0003.84,0009.98,0002.54
2023-05-04 22:24:00,,0823.1,4.99,0.00,30.7,29.3,00.0,39.1,32.2,13.9,0000.0,0003.85,0010.31,0002.57
2023-05-04 22:25:00,,0823.1,5.01,0.00,30.7,29.3,00.0,39.1,32.2,14.2,0000.0,0003.89,0011.00,0002.58
2023-05-04 22:26:00,,0823.2,5.01,0.00,30.7,29.3,00.0,39.1,32.2,14.5,0000.0,0003.92,0011.21,0002.60
2023-05-04 22:27:00,,0823.2,5.00,0.00,30.7,29.3,00.0,39.1,32.2,14.5,0000.0,0003.92,0011.16,0002.61
2023-05-04 22:28:00,,0823.2,4.99,0.00,30.7,29.2,00.0,39.1,32.2,14.3,0000.0,0003.87,0010.95,0002.61
2023-05-04 22:29:00,,0823.2,4.99,0.00,30.7,29.2,00.0,39.1,32.2,14.4,0000.0,0003.86,0010.20,0002.61
2023-05-04 22:30:00,,0823.3,5.00,0.00,30.7,29.1,00.0,39.1,32.2,14.6,0000.0,0003.89,0010.20,0002.61
2023-05-04 22:31:00,,0823.3,4.99,0.00,30.7,27.8,00.0,39.0,32.1,14.7,0000.0,0003.93,0010.31,0002.60
2023-05-04 22:32:00,,0823.3,5.00,0.00,30.6,26.1,00.0,38.9,31.7,14.9,0000.0,0003.96,0011.08,0002.58
2023-05-04 22:33:00,,0823.3,5.01,0.00,30.5,25.9,00.0,38.8,31.6,14.8,0000.0,0003.97,0011.10,0002.55
2023-05-04 22:34:00,,0823.3,5.01,0.00,30.3,26.2,00.0,38.8,31.4,14.5,0000.0,0004.02,0010.98,0002.54
2023-05-04 22:35:00,,0823.3,4.99,0.00,30.3,26.6,00.0,38.8,31.4,14.8,0000.0,0004.09,0010.52,0002.55
2023-05-04 22:36:00,,0823.3,5.00,0.00,30.2,27.0,00.0,38.8,31.5,14.7,0000.0,0004.06,0009.63,0002.57
2023-05-04 22:37:00,,0823.3,5.00,0.00,30.2,27.3,00.0,38.8,31.6,14.7,0000.0,0004.02,0009.41,0002.57
2023-05-04 22:38:00,,0823.3,5.00,0.00,30.2,27.6,00.0,38.7,31.6,14.9,0000.0,0004.03,0009.42,0002.57
2023-05-04 22:39:00,,0823.4,4.99,0.00,30.2,27.8,00.0,38.7,31.6,14.8,0000.0,0004.02,0009.53,0002.57
2023-05-04 22:40:00,,0823.4,5.00,0.00,30.2,28.1,00.0,38.7,31.7,14.7,0000.0,0004.04,0009.71,0002.58
2023-05-04 22:41:00,,0823.4,4.99,0.00,30.2,28.2,00.0,38.7,31.7,14.6,0000.0,0004.01,0009.65,0002.60
2023-05-04 22:42:00,,0823.4,5.01,0.00,30.2,28.3,00.0,38.7,31.7,14.6,0000.0,0003.98,0009.68,0002.61
2023-05-04 22:43:00,,0823.4,5.00,0.00,30.2,28.4,00.0,38.7,31.7,14.8,0000.0,0003.98,0009.41,0002.62
2023-05-04 22:44:00,,0823.5,5.00,0.00,30.2,28.5,00.0,38.7,31.7,14.8,0000.0,0003.93,0009.27,0002.64
2023-05-04 22:45:00,,0823.5,4.99,0.00,30.2,28.5,00.0,38.6,31.7,14.8,0000.0,0003.85,0009.04,0002.63
2023-05-04 22:46:00,,0823.4,5.01,0.00,30.2,28.5,00.0,38.6,31.7,14.8,0000.0,0003.78,0008.77,0002.61
2023-05-04 22:47:00,,0823.4,5.00,0.00,30.2,28.6,00.0,38.6,31.7,14.7,0000.0,0003.80,0008.83,0002.58
2023-05-04 22:48:00,,0823.5,5.00,0.00,30.2,28.6,00.0,38.6,31.7,14.9,0000.0,0003.80,0008.86,0002.55
2023-05-04 22:49:00,,0823.5,4.99,0.00,30.2,28.6,00.0,38.6,31.6,15.4,0000.0,0003.75,0008.79,0002.49
2023-05-04 22:50:00,,0823.5,5.01,0.00,30.1,28.5,00.0,38.6,31.6,15.7,0000.0,0003.76,0009.01,0002.44
2023-05-04 22:51:00,,0823.5,5.00,0.00,30.1,28.5,00.0,38.6,31.5,15.8,0000.0,0003.69,0009.86,0002.35
2023-05-04 22:52:00,,0823.5,4.99,0.00,30.1,28.5,00.0,38.6,31.6,15.8,0000.0,0003.64,0009.81,0002.26
2023-05-04 22:53:00,,0823.6,5.01,0.00,30.1,28.4,00.0,38.6,31.5,15.8,0000.0,0003.60,0009.86,0002.19
2023-05-04 22:54:00,,0823.6,5.01,0.00,30.1,28.4,00.0,38.6,31.6,15.8,0000.0,0003.54,0009.57,0002.10
2023-05-04 22:55:00,,0823.6,4.99,0.00,30.1,28.4,00.0,38.5,31.5,15.9,0000.0,0003.48,0009.39,0002.00
2023-05-04 22:56:00,,0823.6,4.99,0.00,30.0,28.4,00.0,38.5,31.5,16.0,0000.0,0003.42,0009.04,0001.93
2023-05-04 22:57:00,,0823.6,5.02,0.00,30.0,28.4,00.0,38.5,31.5,16.1,0000.0,0003.37,0009.02,0001.86
2023-05-04 22:58:00,,0823.6,5.00,0.00,30.0,28.4,00.0,38.5,31.5,16.4,0000.0,0003.31,0008.93,0001.80
2023-05-04 22:59:00,,0823.6,4.99,0.00,30.0,28.4,00.0,38.5,31.5,16.4,0000.0,0003.23,0008.80,0001.73
